| time (UTC) | temp C | wind direction | speed KPH | gust KPH | rain 1hr cm | rain 24hr cm | rain mn cm | humidity % | barometer mb |
| 20260502123014 | 24 | 225 | 12.9 | 0.0 | 0.00 | 0.00 | 0.00 | 35 | 1014.4 |
| 20260502121514 | 25 | 250 | 9.7 | 0.0 | 0.00 | 0.00 | 0.00 | 35 | 1014.6 |
| 20260502114508 | 24 | 244 | 6.4 | 0.0 | 0.00 | 0.00 | 0.00 | 37 | 1015.0 |
| 20260502113005 | 24 | 241 | 8.0 | 0.0 | 0.00 | 0.00 | 0.00 | 38 | 1015.2 |
| 20260502111503 | 23 | 235 | 8.0 | 0.0 | 0.00 | 0.00 | 0.00 | 40 | 1015.4 |
| 20260502110100 | 23 | 233 | 4.8 | 0.0 | 0.00 | 0.00 | 0.00 | 45 | 1015.5 |
| 20260502104609 | 23 | 233 | 4.8 | 0.0 | 0.00 | 0.00 | 0.00 | 45 | 1015.7 |
| 20260502103056 | 23 | 213 | 1.6 | 0.0 | 0.00 | 0.00 | 0.00 | 46 | 1015.7 |
| 20260502101607 | 22 | 229 | 6.4 | 0.0 | 0.00 | 0.00 | 0.00 | 47 | 1015.8 |
| 20260502071518 | 16 | 165 | 0.0 | 0.0 | 0.00 | 0.00 | 0.00 | 66 | 1017.2 |
| 20260502070030 | 16 | 213 | 0.0 | 0.0 | 0.00 | 0.00 | 0.00 | 67 | 1017.3 |
| 20260502064512 | 15 | 242 | 3.2 | 0.0 | 0.00 | 0.00 | 0.00 | 68 | 1017.5 |
| 20260502063018 | 15 | 239 | 0.0 | 0.0 | 0.00 | 0.00 | 0.00 | 69 | 1017.5 |
| 20260502061512 | 14 | 55 | 0.0 | 0.0 | 0.00 | 0.00 | 0.00 | 74 | 1017.6 |
| 20260502060006 | 12 | 41 | 0.0 | 0.0 | 0.00 | 0.00 | 0.00 | 78 | 1017.6 |
| 20260502054615 | 11 | 141 | 0.0 | 0.0 | 0.00 | 0.00 | 0.00 | 80 | 1017.8 |
| 20260502053058 | 11 | 136 | 0.0 | 0.0 | 0.00 | 0.00 | 0.00 | 81 | 1017.8 |
| 20260502051556 | 10 | 136 | 0.0 | 0.0 | 0.00 | 0.00 | 0.00 | 82 | 1018.1 |
| 20260502050059 | 10 | 128 | 0.0 | 0.0 | 0.00 | 0.00 | 0.00 | 82 | 1018.2 |
| 20260502044554 | 10 | 213 | 0.0 | 0.0 | 0.00 | 0.00 | 0.00 | 82 | 1018.2 |
| 20260502043109 | 10 | 213 | 0.0 | 0.0 | 0.00 | 0.00 | 0.00 | 83 | 1018.3 |
| 20260502041614 | 9 | 213 | 0.0 | 0.0 | 0.00 | 0.00 | 0.00 | 82 | 1018.4 |
| 20260502040056 | 9 | 213 | 0.0 | 0.0 | 0.00 | 0.00 | 0.00 | 82 | 1018.5 |
| 20260502034550 | 9 | 213 | 0.0 | 0.0 | 0.00 | 0.00 | 0.00 | 81 | 1018.8 |
| 20260502033047 | 9 | 215 | 0.0 | 0.0 | 0.00 | 0.00 | 0.00 | 81 | 1018.9 |
| 20260502031546 | 9 | 219 | 0.0 | 0.0 | 0.00 | 0.00 | 0.00 | 81 | 1019.1 |
| 20260502030100 | 9 | 224 | 0.0 | 0.0 | 0.00 | 0.00 | 0.00 | 82 | 1019.3 |
| 20260502024552 | 9 | 224 | 0.0 | 0.0 | 0.00 | 0.00 | 0.00 | 82 | 1019.3 |
| 20260502023055 | 9 | 224 | 0.0 | 0.0 | 0.00 | 0.00 | 0.00 | 82 | 1019.5 |
| 20260502021538 | 9 | 225 | 0.0 | 0.0 | 0.00 | 0.00 | 0.00 | 82 | 1019.8 |
| 20260502020037 | 9 | 227 | 0.0 | 0.0 | 0.00 | 0.00 | 0.00 | 81 | 1020.0 |
| 20260502014538 | 9 | 227 | 0.0 | 0.0 | 0.00 | 0.00 | 0.00 | 82 | 1020.2 |
| 20260502013032 | 9 | 227 | 0.0 | 0.0 | 0.00 | 0.00 | 0.00 | 81 | 1020.4 |
| 20260502011534 | 10 | 227 | 0.0 | 0.0 | 0.00 | 0.00 | 0.00 | 79 | 1020.5 |
| 20260502010029 | 10 | 227 | 0.0 | 0.0 | 0.00 | 0.00 | 0.00 | 78 | 1020.7 |
| 20260502004527 | 10 | 227 | 0.0 | 0.0 | 0.00 | 0.00 | 0.00 | 77 | 1020.9 |
| 20260502003025 | 9 | 227 | 0.0 | 0.0 | 0.00 | 0.00 | 0.00 | 76 | 1020.9 |
| 20260502001530 | 10 | 227 | 0.0 | 0.0 | 0.00 | 0.00 | 0.00 | 76 | 1021.1 |
| 20260502000027 | 10 | 227 | 0.0 | 0.0 | 0.00 | 0.00 | 0.00 | 76 | 1021.1 |
| 20260501234520 | 10 | 227 | 0.0 | 0.0 | 0.00 | 0.00 | 0.00 | 76 | 1021.3 |
| 20260501233020 | 10 | 227 | 0.0 | 0.0 | 0.00 | 0.00 | 0.00 | 77 | 1021.3 |
| 20260501231520 | 10 | 227 | 0.0 | 0.0 | 0.00 | 0.00 | 0.00 | 79 | 1021.3 |
| 20260501230031 | 10 | 227 | 0.0 | 0.0 | 0.00 | 0.00 | 0.00 | 79 | 1021.6 |
| 20260501224511 | 11 | 227 | 0.0 | 0.0 | 0.00 | 0.00 | 0.00 | 80 | 1021.7 |
| 20260501223015 | 11 | 227 | 0.0 | 0.0 | 0.00 | 0.00 | 0.00 | 80 | 1021.8 |
| 20260501221508 | 11 | 227 | 0.0 | 0.0 | 0.00 | 0.00 | 0.00 | 79 | 1021.8 |
| 20260501220005 | 11 | 227 | 0.0 | 0.0 | 0.00 | 0.00 | 0.00 | 77 | 1021.7 |
| 20260501214505 | 12 | 227 | 0.0 | 0.0 | 0.00 | 0.00 | 0.00 | 77 | 1022.0 |
| 20260501213003 | 12 | 227 | 0.0 | 0.0 | 0.00 | 0.00 | 0.00 | 75 | 1022.0 |
| 20260501211502 | 12 | 227 | 0.0 | 0.0 | 0.00 | 0.00 | 0.00 | 74 | 1022.1 |
| 20260501210001 | 12 | 227 | 0.0 | 0.0 | 0.00 | 0.00 | 0.00 | 71 | 1022.2 |
| 20260501204600 | 12 | 227 | 0.0 | 0.0 | 0.00 | 0.00 | 0.00 | 69 | 1022.3 |
| 20260501203057 | 13 | 227 | 0.0 | 0.0 | 0.00 | 0.00 | 0.00 | 68 | 1022.5 |
| 20260501201556 | 13 | 227 | 0.0 | 0.0 | 0.00 | 0.00 | 0.00 | 66 | 1022.7 |
| 20260501200055 | 13 | 228 | 0.0 | 0.0 | 0.00 | 0.00 | 0.00 | 65 | 1022.8 |
| 20260501194554 | 14 | 227 | 0.0 | 0.0 | 0.00 | 0.00 | 0.00 | 64 | 1022.9 |
| 20260501193052 | 15 | 227 | 0.0 | 0.0 | 0.00 | 0.00 | 0.00 | 62 | 1023.0 |
| 20260501191552 | 15 | 227 | 0.0 | 0.0 | 0.00 | 0.00 | 0.00 | 61 | 1023.1 |
| 20260501190052 | 16 | 228 | 0.0 | 0.0 | 0.00 | 0.00 | 0.00 | 58 | 1023.1 |
| 20260501184551 | 17 | 228 | 0.0 | 0.0 | 0.00 | 0.00 | 0.00 | 57 | 1023.1 |
| 20260501183050 | 18 | 228 | 0.0 | 0.0 | 0.00 | 0.00 | 0.00 | 51 | 1023.1 |
| 20260501181555 | 19 | 228 | 0.0 | 0.0 | 0.00 | 0.00 | 0.00 | 49 | 1023.1 |
| 20260501180050 | 20 | 228 | 0.0 | 0.0 | 0.00 | 0.00 | 0.00 | 48 | 1023.1 |
| 20260501174549 | 20 | 227 | 0.0 | 0.0 | 0.00 | 0.00 | 0.00 | 46 | 1023.1 |
| 20260501173102 | 21 | 227 | 0.0 | 0.0 | 0.00 | 0.00 | 0.00 | 44 | 1023.2 |
| 20260501171546 | 21 | 227 | 0.0 | 0.0 | 0.00 | 0.00 | 0.00 | 41 | 1023.4 |
| 20260501170044 | 23 | 244 | 0.0 | 0.0 | 0.00 | 0.00 | 0.00 | 38 | 1023.7 |
| 20260501164601 | 23 | 245 | 0.0 | 0.0 | 0.00 | 0.00 | 0.00 | 38 | 1023.8 |
| 20260501163039 | 23 | 245 | 0.0 | 0.0 | 0.00 | 0.00 | 0.00 | 37 | 1024.0 |
| 20260501161541 | 23 | 245 | 0.0 | 0.0 | 0.00 | 0.00 | 0.00 | 36 | 1024.1 |
| 20260501160036 | 23 | 245 | 0.0 | 0.0 | 0.00 | 0.00 | 0.00 | 36 | 1024.5 |
| 20260501154533 | 22 | 231 | 0.0 | 0.0 | 0.00 | 0.00 | 0.00 | 37 | 1024.6 |
| 20260501153027 | 21 | 343 | 0.0 | 0.0 | 0.00 | 0.00 | 0.00 | 38 | 1024.8 |
| 20260501151525 | 21 | 334 | 0.0 | 0.0 | 0.00 | 0.00 | 0.00 | 37 | 1025.1 |
| 20260501150024 | 20 | 335 | 0.0 | 0.0 | 0.00 | 0.00 | 0.00 | 39 | 1025.1 |
| 20260501144522 | 21 | 325 | 0.0 | 0.0 | 0.00 | 0.00 | 0.00 | 38 | 1025.3 |
| 20260501143027 | 21 | 325 | 0.0 | 0.0 | 0.00 | 0.00 | 0.00 | 39 | 1025.6 |
| 20260501141529 | 21 | 333 | 0.0 | 0.0 | 0.00 | 0.00 | 0.00 | 41 | 1025.7 |
| 20260501140020 | 20 | 337 | 0.0 | 0.0 | 0.00 | 0.00 | 0.00 | 39 | 1025.9 |
| 20260501134515 | 21 | 254 | 0.0 | 0.0 | 0.00 | 0.00 | 0.00 | 37 | 1026.1 |
| 20260501133014 | 21 | 227 | 0.0 | 0.0 | 0.00 | 0.00 | 0.00 | 37 | 1026.0 |